www.pogodaiklimat.ru
Время
(UTC), дата
03 27.05
06 27.05
09 27.05
12 27.05
15 27.05
18 27.05
21 27.05
00 28.05
03 28.05
06 28.05
09 28.05
12 28.05
15 28.05
18 28.05
21 28.05
00 29.05
03 29.05
06 29.05
09 29.05
12 29.05
15 29.05
18 29.05
21 29.05
00 30.05
03 30.05
06 30.05
09 30.05
12 30.05
15 30.05
18 30.05
21 30.05
00 31.05
03 31.05
06 31.05
09 31.05
12 31.05
15 31.05
18 31.05
21 31.05
00 1.06
03 1.06
06 1.06
09 1.06
12 1.06
15 1.06
18 1.06
21 1.06
00 2.06
03 2.06
06 2.06
09 2.06
12 2.06
15 2.06
18 2.06
21 2.06
00 3.06
Ветер
(напр.,м/с)
Видим. Явления Облачность Т
(С)
Тd
(С)
f
(%)
Тe
(С)
Тes
(С)
Комфортность P
(гПа)
Po
(гПа)
Тmin
(С)
Tmax
(С)
R
(мм)
R24
(мм)
S
(см)
штиль 0 10 км 8/5 600 м
[Sc As trans]
+8.8 +8.4 97 +8 +8 по сезону 1025.6 997.5
СЗ 4 50 км в посл. час ливневой дождь 9/5 600 м
[Cb calv Ac trans]
+12.7 +10.6 87 +11 +12 по сезону 1025.5 997.8 +8.5 2
С 2 50 км 9/3 600 м
[Cu med, cong Ac trans Ci fib]
+16.0 +9.7 66 +16 +22 тепло 1024.4 997.0
В 5 50 км гроза без осадков {ливн. осадки} [макс. диам. градин 3 мм] 10/8 600 м
[Cb calv Ac und]
+13.5 +8.8 73 +12 +12 прохладно 1024.1 996.5
СВ 3 50 км {гроза} 9/4 600 м
[Cb calv Ac trans Ci fib]
+16.1 +7.0 55 +16 +17 тепло 1023.3 995.9
СЗ 2 50 км {гроза} 8/3 600 м
[Sc Ac trans Ci fib]
+11.9 +9.1 83 +11 +11 по сезону 1023.7 995.9 +17.8 3
С 3 10 км 8/3 600 м
[Sc Ac trans]
+10.6 +8.4 86 +9 +9 по сезону 1024.4 996.5
штиль 0 10 км 9/3 600 м
[Sc Ac trans]
+8.5 +7.4 93 +8 +8 по сезону 1023.4 995.3
штиль 0 10 км 8/0
[Ac trans]
+7.3 +6.6 95 +6 +6 по сезону 1022.5 994.3
С 1 50 км 8/0
[Ac trans]
+12.2 +9.7 85 +12 +16 тепло 1021.7 994.0 +7.2
С 3 50 км 9/4 1000 м
[Cb calv Ac trans]
+16.5 +9.9 65 +16 +20 тепло 1019.9 992.7
СВ 6 50 км 8/4 1000 м
[Cb calv Ac trans]
+18.1 +7.5 50 +18 +20 тепло 1017.5 990.5
СВ 7 50 км {ливн. осадки} 8/4 600 м
[Cb calv Ac trans Ci fib]
+19.4 +7.0 44 +20 +20 тепло 1016.2 989.3
С 3 50 км {ливн. осадки} 8/5 1000 м
[Cb calv Ac trans]
+14.1 +8.4 69 +13 +13 тепло 1016.6 989.2 +19.7 2
СЗ 4 10 км 8/4 600 м
[Sc Ac trans]
+13.5 +8.3 71 +12 +12 тепло 1015.8 988.4
СЗ 4 10 км 10/4 1000 м
[Sc Ac und]
+12.2 +8.6 79 +10 +10 тепло 1014.7 987.2
С 4 50 км 9/3 1000 м
[Sc Ac trans Ci fib]
+11.0 +7.7 80 +9 +9 тепло 1015.0 987.4
С 5 50 км 9/3 1000 м
[Sc Ac und]
+12.6 +8.4 76 +10 +11 тепло 1014.7 987.2 +10.8
С 5 50 км 10/5 600 м
[Cb calv Ac und]
+14.6 +9.2 70 +13 +14 тепло 1014.2 986.9
С 6 20 км слаб. ливневой дождь 10/8 800 м
[Cb calv Ac und]
+13.9 +11.3 84 +12 +12 по сезону 1013.8 986.5
С 7 10 км слаб. ливневой дождь 10/8 570 м
[Cb calv Ac und]
+11.8 +9.9 88 +9 +9 по сезону 1014.1 986.6
С 7 50 км в посл. час ливневой дождь 10/8 750 м
[Cb calv Ac und]
+10.8 +9.2 90 +7 +7 по сезону 1013.6 986.0 +14.7 7
С 6 4000 м слаб. ливневой дождь 10/8 450 м
[Cb calv Ac und]
+10.3 +9.9 97 +7 +7 по сезону 1012.5 984.9
СЗ 6 4000 м слаб. ливневой дождь 10/9 210 м
[Cb calv Ac und]
+10.1 +9.7 97 +6 +6 прохладно 1011.2 983.6
СЗ 6 20 км в посл. час ливневой дождь 10/8 240 м
[Cb calv Ac und]
+10.1 +9.7 97 +6 +6 холодно 1009.4 981.8
С 6 4000 м слаб. дождь 10/10 150 м
[St]
+10.7 +10.3 97 +7 +7 холодно 1008.2 980.7 +9.9 10
СЗ 6 10 км слаб. ливневой дождь 10/8 180 м
[Cb calv Ac und]
+10.9 +10.5 97 +8 +8 очень
холодно
1007.3 979.9
СЗ 7 4000 м слаб. ливневой дождь 10/9 180 м
[Cb calv Ac und]
+10.2 +9.8 97 +6 +6 очень
холодно
1005.9 978.4
З 8 4000 м слаб. ливневой дождь 10/9 210 м
[Cb calv Ac und]
+10.4 +10.0 97 +6 +6 очень
холодно
1003.2 975.8
З 8 10 км слаб. ливневой дождь 10/8 210 м
[Cb calv Ac und]
+10.2 +9.8 97 +6 +6 очень
холодно
1000.5 973.2 +11.1 14
З 6 4000 м слаб. ливневой дождь 10/8 150 м
[Cb calv Ac und]
+10.8 +10.4 97 +7 +7 холодно 998.1 970.9
СВ 7 10 км {ливн. осадки} 10/8 150 м
[Cb calv Ac und]
+12.5 +12.1 97 +9 +9 по сезону 997.6 970.6
СВ 7 10 км {ливн. осадки} 10/8 180 м
[Cb calv Ac und]
+11.5 +11.1 97 +8 +8 прохладно 999.3 972.1
СВ 8 10 км {ливн. осадки} 10/6 600 м
[Cb cap Ac und]
+11.6 +9.4 86 +8 +8 холодно 1002.9 975.8 +10.1 11
В 8 50 км 9/5 600 м
[Cb cap Ac trans]
+13.2 +8.8 75 +10 +11 холодно 1005.4 978.1
В 6 50 км 9/5 600 м
[Cb cap Ac trans]
+14.4 +8.5 68 +13 +14 холодно 1006.9 979.6
СВ 4 50 км {ливн. осадки} 9/9 960 м
[Cb cap Ac und]
+15.3 +9.8 70 +14 +15 прохладно 1007.9 980.9
В 2 10 км в посл. час ливневой дождь 9/6 1000 м
[Cb cap Ac und]
+12.8 +10.5 86 +12 +12 прохладно 1009.7 982.4 +15.3 0.0
С 5 4000 м слаб. ливневой дождь 10/8 210 м
[Cb cap Ac und]
+12.2 +11.6 96 +10 +10 прохладно 1011.2 983.8
С 5 10 км {ливн. осадки} 1/0
[Ac und]
+10.3 +9.1 92 +7 +7 прохладно 1012.0 984.4
С 5 20 км 5/0
[Ac und]
+9.5 +7.4 87 +6 +6 холодно 1012.7 985.0
СВ 4 20 км 4/4 600 м
[Cu hum]
+12.7 +8.3 75 +11 +14 прохладно 1012.9 985.5 +9.3 1
С 5 50 км 8/8 750 м
[Cb calv]
+15.4 +7.2 58 +14 +16 прохладно 1012.4 985.2
СВ 6 50 км {ливн. осадки} 8/8 800 м
[Cb calv]
+11.1 +7.6 79 +8 +9 очень
холодно
1013.3 985.7
С 8 50 км {ливн. осадки} 9/9 630 м
[Cb calv]
+12.9 +3.4 52 +10 +10 очень
холодно
1013.2 985.8
С 3 10 км {ливн. осадки} 5/5 600 м
[Sc]
+10.2 +3.1 61 +8 +8 очень
холодно
1013.9 986.2 +16.2 0.9
СЗ 4 10 км 5/5 600 м
[Sc]
+9.1 +3.9 70 +6 +6 очень
холодно
1012.9 985.1
СЗ 4 10 км 8/8 750 м
[Cb calv]
+7.8 +4.6 80 +5 +5 холодно 1010.9 983.0
СЗ 7 10 км слаб. дождь 10/9 210 м
[Frnb As op]
+6.8 +5.5 91 +2 +2 очень
холодно
1008.4 980.5
СЗ 7 4000 м слаб. дождь 10/9 270 м
[Frnb As op]
+7.3 +6.2 93 +2 +2 очень
холодно
1007.1 979.3 +6.6 5
СЗ 7 50 км в посл. час дождь 10/9 420 м
[Cb calv Ac und]
+9.3 +7.0 86 +5 +5 очень
холодно
1006.4 978.8
СЗ 7 50 км {ливн. осадки, дождь} 10/8 630 м
[Cb calv Ac und]
+9.5 +6.5 82 +6 +6 очень
холодно
1005.8 978.3
З 5 20 км 10/6 570 м
[Sc Ac und]
+9.8 +7.7 87 +7 +7 очень
холодно
1004.6 977.1
СЗ 4 10 км слаб. ливневой дождь 10/10 240 м
[Cb calv]
+9.0 +8.6 97 +6 +6 очень
холодно
1003.5 976.0 +11.2 2
С 3 10 км в посл. час ливневой дождь 10/10 400 м
[Cb calv]
+8.5 +8.1 97 +6 +6 очень
холодно
1003.3 975.7
СЗ 2 10 км {ливн. осадки} 10/10 300 м
[Sc]
+7.4 +6.3 93 +5 +5 холодно 1003.0 975.3
Местоположение метеостанции Ровно (Ровенская область, Украина): широта 50.58 долгота 26.13 высота над уровнем моря 231 м.
В архиве по умолчанию представлена погода в Ровно за последнюю неделю. Архивные данные за месяц целиком и за предыдущие месяцы, начиная с января 2011 года, Вы можете получить, выбрав интересующий диапазон дат из раскрывающегося списка и нажав кнопку "Найти!".
*Определитесь, кто Вы:
Внимание! Время в таблицах - всемирное. Для получения местного времени необходимо прибавить поправку, которая равна 2 ч.
Смотрите также архив погоды в соседних городах и на ближайших метеорологических станциях:
Партнеры нашего сайта:      
Пояснения к столбцам:
  • Ветер - указаны скорость ветра в м/с - средняя за 10 мин, порывы в срок и между сроками (в фигурных скобках) и направление, откуда дует ветер: С - северный,
  • СВ - северо-восточный, В - восточный, ЮВ - юго-восточный, Ю - южный, ЮЗ - юго-западный, З - западный, СЗ - северо-западный.
  • Видимость - горизонтальная дальность видимости в метрах или километрах. При видимости от 1 до 10 км при отсутствии осадков обычно наблюдается дымка, при ухудшении видимости до 1 км и менее - туман. В сухую погоду видимость может ухудшаться дымом, пылью или мглою.
  • Явления - указаны атмосферные явления, наблюдавшиеся в срок или в последний час перед сроком; фигурными скобками обозначены явления, наблюдавшиеся между сроками (за 1-3 часа до срока); квадратными скобками обозначены град или гололедные отложения с указанием их диаметра в мм.
  • Облачность - указаны через наклонную черту общая и нижняя облачность в баллах и высота нижней границы облаков в метрах; квадратными скобками обозначены формы облаков: Ci - перистые, Cs - перисто-слоистые, Cc - перисто-кучевые, Ac - высококучевые, As - высокослоистые, Sc - слоисто-кучевые, Ns - слоисто-дождевые, Cu - кучевые, Cb - кучево-дождевые. Подробнее классификацию облаков см. в Атласе облаков (PDF).
  • T - Температура воздуха - температура, измеренная на высоте 2 м над землей.
  • Td - Температура точки росы - температура, при понижении до которой содержащийся в воздухе водяной пар достигнет насыщения.
  • f - Относительная влажность воздуха - влажноcть воздуха, измеренная на высоте 2 м над землей.
  • Te - Эффективная температура - температура, которую ощущает одетый по сезону человек в тени. Характеристика душности погоды. При расчете учитывается влияние влажности воздуха и скорости ветра на теплоощущения человека.
  • Tes - Эффективная температура на солнце - температура, которую ощущает человек, с поправкой на солнечный нагрев. Характеристика знойности погоды. Зависит от высоты солнца над горизонтом, облачности и скорости ветра. Ночью, в пасмурную погоду, а также при ветре 12 м/с и более поправка равна нулю.
  • P - Атмосферное давление - приведенное к уровню моря атмосферное давление.
  • Po - Атмосферное давление - измеренное на уровне метеостанции атмосферное давление.
  • Tmin - Минимальная температура - минимум температуры воздуха на высоте 2 м над землей.
  • Tmax - Максимальная температура - максимум температуры воздуха на высоте 2 м над землей.
  • R - Количество осадков - Количество выпавших осадков за период времени, мм. При наведении курсора мыши на число - период времени, за который выпало указанное количество осадков.
  • R24 - Количество осадков - Количество выпавших осадков за 24 часа, мм.
  • S - Снежный покров - Высота снежного покрова, см. При наведении курсора мыши на число - состояние снежного покрова и степень покрытия местности в баллах.